When you browse on this site, cookies collect data to enhance your experience and personalize the content and advertising you see.
Visit our Privacy Policy to learn more. By continuing to use the site, you agree to this use of cookies and data.
  • In Portugal
  • List of Countries
  • For 7 days
  • Water Temperature
  • Satellite Maps
  • Weather Map
  • Weather Widgets
  • user-avatar
    Login

    Hourly Weather Gaborone

    Today, 17 December, Monday

    Time Temperature Precipitation Wind Pressure Humidity
    00:00 +29°C° 0.1 mm 2 mps 678 mmHg 30%
    01:00 +28°C° 0.1 mm 2 mps 678 mmHg 32%
    02:00 +27°C° 0 mm 1 mps 678 mmHg 32%
    03:00 +26°C° 0 mm 2 mps 678 mmHg 34%
    04:00 +26°C° 0 mm 2 mps 678 mmHg 36%
    05:00 +25°C° 0 mm 2 mps 678 mmHg 39%
    06:00 +27°C° 0 mm 3 mps 679 mmHg 38%
    07:00 +28°C° 0 mm 4 mps 679 mmHg 38%
    08:00 +30°C° 0 mm 5 mps 680 mmHg 37%
    09:00 +33°C° 0 mm 5 mps 680 mmHg 32%
    10:00 +34°C° 0 mm 4 mps 680 mmHg 28%
    11:00 +36°C° 0 mm 4 mps 680 mmHg 23%
    12:00 +37°C° 0 mm 4 mps 680 mmHg 21%
    13:00 +38°C° 0 mm 4 mps 679 mmHg 19%
    14:00 +39°C° 0 mm 3 mps 678 mmHg 17%
    15:00 +39°C° 0 mm 3 mps 678 mmHg 18%
    16:00 +38°C° 0 mm 3 mps 677 mmHg 19%
    17:00 +38°C° 0 mm 3 mps 677 mmHg 19%
    18:00 +36°C° 0 mm 3 mps 677 mmHg 22%
    19:00 +34°C° 0 mm 2 mps 676 mmHg 24%
    20:00 +32°C° 0 mm 1 mps 676 mmHg 27%
    21:00 +31°C° 0 mm 1 mps 676 mmHg 29%
    22:00 +30°C° 0 mm 1 mps 677 mmHg 30%
    23:00 +29°C° 0 mm 1 mps 677 mmHg 32%

    Tomorrow, 18 December, Tuesday

    Time Temperature Precipitation Wind Pressure Humidity
    00:00 +29°C° 0 mm 1 mps 676 mmHg 34%
    01:00 +28°C° 0 mm 1 mps 676 mmHg 36%
    02:00 +27°C° 0 mm 1 mps 676 mmHg 38%
    03:00 +27°C° 0 mm 1 mps 676 mmHg 39%
    04:00 +26°C° 0 mm 1 mps 676 mmHg 40%
    05:00 +26°C° 0 mm 2 mps 676 mmHg 42%
    06:00 +27°C° 0 mm 3 mps 677 mmHg 39%
    07:00 +29°C° 0 mm 4 mps 677 mmHg 35%
    08:00 +32°C° 0 mm 5 mps 678 mmHg 32%
    09:00 +34°C° 0 mm 4 mps 678 mmHg 29%
    10:00 +35°C° 0 mm 4 mps 678 mmHg 25%
    11:00 +37°C° 0 mm 3 mps 678 mmHg 22%
    12:00 +39°C° 0 mm 2 mps 677 mmHg 19%
    13:00 +40°C° 0 mm 2 mps 677 mmHg 17%
    14:00 +42°C° 0 mm 1 mps 676 mmHg 14%
    15:00 +41°C° 0 mm 1 mps 676 mmHg 15%
    16:00 +40°C° 0 mm 1 mps 675 mmHg 15%
    17:00 +40°C° 0 mm 1 mps 674 mmHg 15%
    18:00 +37°C° 0 mm 1 mps 674 mmHg 16%
    19:00 +36°C° 0 mm 1 mps 674 mmHg 17%
    20:00 +35°C° 0 mm 1 mps 674 mmHg 19%
    21:00 +35°C° 0 mm 2 mps 674 mmHg 21%
    22:00 +32°C° 0 mm 2 mps 675 mmHg 22%
    23:00 +31°C° 0 mm 2 mps 675 mmHg 24%

    Day after tomorrow, 19 December, Wednesday

    Time Temperature Precipitation Wind Pressure Humidity
    00:00 +31°C° 0 mm 1 mps 674 mmHg 26%
    01:00 +30°C° 0 mm 1 mps 674 mmHg 28%
    02:00 +30°C° 0 mm 1 mps 674 mmHg 29%
    03:00 +29°C° 0 mm 2 mps 674 mmHg 33%
    04:00 +28°C° 0 mm 2 mps 674 mmHg 36%
    05:00 +27°C° 0 mm 3 mps 674 mmHg 40%
    06:00 +29°C° 0 mm 4 mps 675 mmHg 36%
    07:00 +30°C° 0 mm 5 mps 675 mmHg 33%
    08:00 +33°C° 0 mm 6 mps 676 mmHg 30%
    09:00 +35°C° 0 mm 5 mps 676 mmHg 26%
    10:00 +37°C° 0 mm 5 mps 676 mmHg 22%
    11:00 +40°C° 0 mm 5 mps 676 mmHg 18%
    12:00 +41°C° 0 mm 4 mps 676 mmHg 16%
    13:00 +42°C° 0 mm 3 mps 675 mmHg 15%
    14:00 +43°C° 0 mm 3 mps 675 mmHg 13%
    15:00 +42°C° 0 mm 3 mps 674 mmHg 14%
    16:00 +40°C° 0 mm 3 mps 674 mmHg 14%
    17:00 +40°C° 0 mm 2 mps 673 mmHg 15%
    18:00 +38°C° 0.2 mm 2 mps 673 mmHg 18%
    19:00 +36°C° 0.2 mm 2 mps 673 mmHg 21%
    20:00 +34°C° 0.2 mm 2 mps 673 mmHg 24%
    21:00 +33°C° 0 mm 1 mps 673 mmHg 25%
    22:00 +32°C° 0 mm 1 mps 674 mmHg 27%
    23:00 +29°C° 0 mm 0 mps 674 mmHg 28%

    20 December, Thursday

    Time Temperature Precipitation Wind Pressure Humidity
    00:00 +31°C° 0 mm 1 mps 674 mmHg 28%
    01:00 +30°C° 0 mm 1 mps 674 mmHg 27%
    02:00 +30°C° 0 mm 2 mps 674 mmHg 27%
    03:00 +29°C° 0 mm 2 mps 674 mmHg 26%
    04:00 +29°C° 0 mm 2 mps 674 mmHg 26%
    05:00 +28°C° 0 mm 3 mps 674 mmHg 26%
    06:00 +29°C° 0 mm 3 mps 675 mmHg 26%
    07:00 +30°C° 0 mm 4 mps 676 mmHg 26%
    08:00 +33°C° 0 mm 5 mps 676 mmHg 26%
    09:00 +35°C° 0 mm 4 mps 676 mmHg 25%
    10:00 +37°C° 0 mm 4 mps 677 mmHg 23%
    11:00 +40°C° 0 mm 4 mps 677 mmHg 22%
    12:00 +40°C° 0 mm 4 mps 676 mmHg 21%
    13:00 +39°C° 0 mm 3 mps 675 mmHg 20%
    14:00 +40°C° 0 mm 3 mps 675 mmHg 18%
    15:00 +39°C° 0 mm 2 mps 675 mmHg 19%
    16:00 +39°C° 0 mm 2 mps 674 mmHg 19%
    17:00 +39°C° 0 mm 1 mps 674 mmHg 19%
    18:00 +37°C° 0.1 mm 2 mps 674 mmHg 23%
    19:00 +36°C° 0.1 mm 2 mps 674 mmHg 26%
    20:00 +34°C° 0.1 mm 3 mps 675 mmHg 29%
    21:00 +32°C° 0 mm 2 mps 675 mmHg 32%
    22:00 +31°C° 0 mm 2 mps 675 mmHg 34%
    23:00 +30°C° 0 mm 2 mps 675 mmHg 37%

    21 December, Friday

    Time Temperature Precipitation Wind Pressure Humidity
    00:00 +29°C° 0.3 mm 4 mps 675 mmHg 47%
    01:00 +27°C° 0.3 mm 6 mps 675 mmHg 57%
    02:00 +26°C° 0.3 mm 7 mps 675 mmHg 67%
    03:00 +24°C° 0.1 mm 6 mps 676 mmHg 70%
    04:00 +25°C° 0.1 mm 5 mps 676 mmHg 73%
    05:00 +23°C° 0.1 mm 4 mps 676 mmHg 75%
    06:00 +25°C° 0 mm 4 mps 677 mmHg 70%
    07:00 +26°C° 0 mm 4 mps 677 mmHg 65%
    08:00 +27°C° 0 mm 5 mps 678 mmHg 60%
    09:00 +29°C° 0 mm 5 mps 678 mmHg 54%
    10:00 +32°C° 0 mm 5 mps 678 mmHg 47%
    11:00 +34°C° 0 mm 5 mps 678 mmHg 41%
    12:00 +35°C° 0 mm 5 mps 677 mmHg 37%
    13:00 +37°C° 0 mm 5 mps 677 mmHg 34%
    14:00 +39°C° 0 mm 5 mps 676 mmHg 30%
    15:00 +37°C° 0 mm 5 mps 676 mmHg 30%
    16:00 +37°C° 0 mm 5 mps 676 mmHg 31%
    17:00 +37°C° 0 mm 5 mps 675 mmHg 31%
    18:00 +35°C° 0 mm 5 mps 675 mmHg 35%
    19:00 +33°C° 0 mm 5 mps 675 mmHg 39%
    20:00 +32°C° 0 mm 5 mps 675 mmHg 44%
    21:00 +30°C° 0.2 mm 5 mps 676 mmHg 47%
    22:00 +29°C° 0.2 mm 5 mps 676 mmHg 51%
    23:00 +28°C° 0.2 mm 4 mps 677 mmHg 54%

    22 December, Saturday

    Time Temperature Precipitation Wind Pressure Humidity
    00:00 +28°C° 1.3 mm 4 mps 677 mmHg 58%
    01:00 +27°C° 1.3 mm 3 mps 676 mmHg 62%
    02:00 +26°C° 1.3 mm 3 mps 676 mmHg 66%
    03:00 +26°C° 0.5 mm 4 mps 676 mmHg 67%
    04:00 +25°C° 0.5 mm 4 mps 676 mmHg 69%
    05:00 +25°C° 0.5 mm 5 mps 676 mmHg 71%
    06:00 +25°C° 0 mm 5 mps 677 mmHg 68%
    07:00 +26°C° 0 mm 5 mps 677 mmHg 65%
    08:00 +27°C° 0 mm 5 mps 678 mmHg 62%
    09:00 +28°C° 0 mm 5 mps 678 mmHg 56%
    10:00 +30°C° 0 mm 5 mps 678 mmHg 49%
    11:00 +33°C° 0 mm 5 mps 678 mmHg 43%
    12:00 +34°C° 0 mm 5 mps 677 mmHg 38%
    13:00 +36°C° 0 mm 4 mps 677 mmHg 33%
    14:00 +37°C° 0 mm 4 mps 676 mmHg 29%
    15:00 +37°C° 0 mm 3 mps 675 mmHg 29%
    16:00 +36°C° 0 mm 3 mps 675 mmHg 28%
    17:00 +36°C° 0 mm 2 mps 674 mmHg 28%
    18:00 +35°C° 0.1 mm 2 mps 674 mmHg 31%
    19:00 +34°C° 0.1 mm 2 mps 674 mmHg 34%
    20:00 +31°C° 0.1 mm 2 mps 674 mmHg 37%
    21:00 +30°C° 0.3 mm 2 mps 674 mmHg 42%
    22:00 +29°C° 0.3 mm 2 mps 674 mmHg 46%
    23:00 +28°C° 0.3 mm 1 mps 674 mmHg 51%
    Show more